User: anonymous   Login
Location: Unspecified
(0.0000°N, 0.0000°E)
Time: 11:14:45
(UTC+00:00)
Language:

MAROC-TUBSAT - Orbit

View from above orbital plane
View from above orbital plane
View from above satellite
View from above satellite

Ground track
Ground track

The orbit data is extracted from the following two-line orbital elements,

1 27004U 01056D   19081.93547549 -.00000036 +00000-0 +87904-5 0  9993
2 27004 099.4477 217.0797 0020703 106.3255 002.9864 13.70133725864203
Epoch (UTC): 22 March 2019 22:27:05
Eccentricity: 0.0020703
inclination: 99.4477°
perigee height: 984 km
apogee height: 1014 km
right ascension of ascending node: 217.0797°
argument of perigee: 106.3255°
revolutions per day: 13.70133725
mean anomaly at epoch: 2.9864°
orbit number at epoch: 86420

The dashed part of the orbit path shows where the satellite is in the earth's shadow,  

DLR